Tracking 25620 objects as of 18-May-2022
HD Live streaming from Space Station
objects crossing your sky now

FLOCK 4X 1

Track FLOCK 4X 1 now!
10-day predictions


NORAD ID: 51017
Int'l Code: 2022-002AK
Perigee: 519.5 km
Apogee: 538.4 km
Inclination: 97.5 °
Period: 95.1 minutes
Semi major axis: 6899 km
RCS: Unknown
Launch date: January 13, 2022
Source: United States (US)
Launch site: AIR FORCE EASTERN TEST RANGE (AFETR)
aabbcc
Your satellite tracking list
Your tracking list is empty




NASA's NSSDC Master Catalog

Two Line Element Set (TLE):
1 51017U 22002AK  22137.44288621  .00008544  00000-0  46351-3 0  9993
2 51017  97.4862 205.1114 0013713 165.9012 194.2605 15.14723812 18735
Source of the keplerian elements: AFSPC